Time,TemperatureF,DewpointF,PressureIn,WindDirection,WindDirectionDegrees,WindSpeedMPH,WindSpeedGustMPH,Humidity,HourlyPrecipIn,Conditions,Clouds,dailyrainin,SoftwareType,DateUTC
2013-03-21 00:07:00,18.0,13.0,30.09,WNW,300,0.0,2.0,82,0.00,,,0.00,weatherlink.com 1.10,2013-03-21 05:07:00,
2013-03-21 00:22:00,17.7,13.0,30.08,WNW,300,1.0,1.0,81,0.00,,,0.00,weatherlink.com 1.10,2013-03-21 05:22:00,
2013-03-21 00:37:00,17.7,12.0,30.08,NW,316,0.0,8.0,78,0.00,,,0.00,weatherlink.com 1.10,2013-03-21 05:37:00,
2013-03-21 00:53:00,17.8,11.0,30.08,NW,309,1.0,5.0,74,0.00,,,0.00,weatherlink.com 1.10,2013-03-21 05:53:00,
2013-03-21 01:08:00,17.6,10.0,30.08,West,263,0.0,3.0,73,0.00,,,0.00,weatherlink.com 1.10,2013-03-21 06:08:00,
2013-03-21 01:23:00,17.5,10.0,30.08,WNW,303,0.0,4.0,72,0.00,,,0.00,weatherlink.com 1.10,2013-03-21 06:23:00,
2013-03-21 01:38:00,17.4,10.0,30.07,NNW,331,0.0,6.0,72,0.00,,,0.00,weatherlink.com 1.10,2013-03-21 06:38:00,
2013-03-21 01:53:00,17.3,9.0,30.08,WNW,297,0.0,4.0,71,0.00,,,0.00,weatherlink.com 1.10,2013-03-21 06:53:00,
2013-03-21 02:08:00,17.1,10.0,30.08,WNW,296,0.0,2.0,72,0.00,,,0.00,weatherlink.com 1.10,2013-03-21 07:08:00,
2013-03-21 02:23:00,16.9,9.0,30.08,WNW,298,0.0,4.0,72,0.00,,,0.00,weatherlink.com 1.10,2013-03-21 07:23:00,
2013-03-21 02:38:00,16.7,9.0,30.07,WNW,296,0.0,5.0,72,0.00,,,0.00,weatherlink.com 1.10,2013-03-21 07:38:00,
2013-03-21 02:53:00,16.5,9.0,30.07,WNW,296,0.0,3.0,73,0.00,,,0.00,weatherlink.com 1.10,2013-03-21 07:53:00,
2013-03-21 03:08:00,16.3,9.0,30.07,WNW,294,0.0,5.0,74,0.00,,,0.00,weatherlink.com 1.10,2013-03-21 08:08:00,
2013-03-21 03:23:00,16.0,9.0,30.07,WNW,296,1.0,3.0,74,0.00,,,0.00,weatherlink.com 1.10,2013-03-21 08:23:00,
2013-03-21 03:38:00,15.8,9.0,30.07,WNW,295,0.0,2.0,74,0.00,,,0.00,weatherlink.com 1.10,2013-03-21 08:38:00,
2013-03-21 03:53:00,15.7,9.0,30.07,WNW,295,0.0,2.0,75,0.00,,,0.00,weatherlink.com 1.10,2013-03-21 08:53:00,
2013-03-21 04:08:00,15.6,9.0,30.06,WNW,295,1.0,3.0,76,0.00,,,0.00,weatherlink.com 1.10,2013-03-21 09:08:00,
2013-03-21 04:23:00,15.5,9.0,30.06,WNW,296,0.0,4.0,75,0.00,,,0.00,weatherlink.com 1.10,2013-03-21 09:23:00,
2013-03-21 04:38:00,15.5,9.0,30.06,West,266,0.0,4.0,75,0.00,,,0.00,weatherlink.com 1.10,2013-03-21 09:38:00,
2013-03-21 04:53:00,15.3,9.0,30.07,West,266,0.0,1.0,75,0.00,,,0.00,weatherlink.com 1.10,2013-03-21 09:53:00,
2013-03-21 05:08:00,15.1,9.0,30.06,West,266,0.0,2.0,77,0.00,,,0.00,weatherlink.com 1.10,2013-03-21 10:08:00,
2013-03-21 05:23:00,14.9,9.0,30.07,West,266,0.0,2.0,76,0.00,,,0.00,weatherlink.com 1.10,2013-03-21 10:23:00,
2013-03-21 05:38:00,14.9,9.0,30.07,West,266,0.0,1.0,78,0.00,,,0.00,weatherlink.com 1.10,2013-03-21 10:38:00,
2013-03-21 05:53:00,14.7,10.0,30.07,West,266,0.0,1.0,80,0.00,,,0.00,weatherlink.com 1.10,2013-03-21 10:53:00,
2013-03-21 06:08:00,14.5,9.0,30.08,West,267,0.0,4.0,79,0.00,,,0.00,weatherlink.com 1.10,2013-03-21 11:08:00,
2013-03-21 06:23:00,14.4,9.0,30.08,WNW,298,0.0,5.0,78,0.00,,,0.00,weatherlink.com 1.10,2013-03-21 11:23:00,
2013-03-21 06:38:00,14.4,9.0,30.09,WNW,298,0.0,2.0,78,0.00,,,0.00,weatherlink.com 1.10,2013-03-21 11:38:00,
2013-03-21 06:53:00,14.4,9.0,30.08,WNW,296,0.0,4.0,78,0.00,,,0.00,weatherlink.com 1.10,2013-03-21 11:53:00,
2013-03-21 07:08:00,14.4,9.0,30.08,WNW,295,0.0,3.0,78,0.00,,,0.00,weatherlink.com 1.10,2013-03-21 12:08:00,
2013-03-21 07:23:00,14.6,9.0,30.08,WNW,299,0.0,5.0,78,0.00,,,0.00,weatherlink.com 1.10,2013-03-21 12:23:00,
2013-03-21 07:38:00,15.3,9.0,30.08,WNW,294,0.0,5.0,77,0.00,,,0.00,weatherlink.com 1.10,2013-03-21 12:38:00,
2013-03-21 07:53:00,16.2,10.0,30.09,WNW,285,4.0,7.0,75,0.00,,,0.00,weatherlink.com 1.10,2013-03-21 12:53:00,
2013-03-21 08:08:00,17.1,10.0,30.09,West,276,3.0,5.0,73,0.00,,,0.00,weatherlink.com 1.10,2013-03-21 13:08:00,
2013-03-21 08:23:00,18.0,11.0,30.09,NW,315,1.0,9.0,73,0.00,,,0.00,weatherlink.com 1.10,2013-03-21 13:23:00,
2013-03-21 08:38:00,18.8,12.0,30.09,North,355,0.0,9.0,74,0.00,,,0.00,weatherlink.com 1.10,2013-03-21 13:38:00,
2013-03-21 08:53:00,19.5,12.0,30.10,WSW,237,4.0,9.0,72,0.00,,,0.00,weatherlink.com 1.10,2013-03-21 13:53:00,
2013-03-21 09:08:00,19.9,12.0,30.10,West,260,8.0,10.0,72,0.00,,,0.00,weatherlink.com 1.10,2013-03-21 14:08:00,
2013-03-21 09:24:00,20.5,13.0,30.10,West,278,0.0,12.0,72,0.00,,,0.00,weatherlink.com 1.10,2013-03-21 14:24:00,
2013-03-21 09:39:00,21.1,14.0,30.10,NW,317,3.0,10.0,73,0.00,,,0.00,weatherlink.com 1.10,2013-03-21 14:39:00,
2013-03-21 09:54:00,22.2,13.0,30.10,WSW,250,2.0,12.0,69,0.00,,,0.00,weatherlink.com 1.10,2013-03-21 14:54:00,
2013-03-21 10:09:00,23.1,14.0,30.09,NW,307,0.0,9.0,69,0.00,,,0.00,weatherlink.com 1.10,2013-03-21 15:09:00,
2013-03-21 10:24:00,23.8,14.0,30.09,NW,325,1.0,11.0,67,0.00,,,0.00,weatherlink.com 1.10,2013-03-21 15:24:00,
2013-03-21 10:39:00,24.5,15.0,30.09,WSW,245,3.0,12.0,68,0.00,,,0.00,weatherlink.com 1.10,2013-03-21 15:39:00,
2013-03-21 10:54:00,25.5,15.0,30.09,WNW,288,3.0,9.0,65,0.00,,,0.00,weatherlink.com 1.10,2013-03-21 15:54:00,
2013-03-21 11:09:00,26.0,16.0,30.09,SW,223,10.0,12.0,66,0.00,,,0.00,weatherlink.com 1.10,2013-03-21 16:09:00,
2013-03-21 11:24:00,27.1,17.0,30.09,West,279,2.0,10.0,65,0.00,,,0.00,weatherlink.com 1.10,2013-03-21 16:24:00,
2013-03-21 11:39:00,27.6,17.0,30.09,West,259,2.0,9.0,64,0.00,,,0.00,weatherlink.com 1.10,2013-03-21 16:39:00,
2013-03-21 11:54:00,28.5,19.0,30.09,NW,308,3.0,10.0,67,0.00,,,0.00,weatherlink.com 1.10,2013-03-21 16:54:00,
2013-03-21 12:10:00,29.2,17.0,30.09,West,273,5.0,8.0,61,0.00,,,0.00,weatherlink.com 1.10,2013-03-21 17:10:00,
2013-03-21 12:24:00,29.2,18.0,30.09,South,188,4.0,11.0,62,0.00,,,0.00,weatherlink.com 1.10,2013-03-21 17:24:00,
2013-03-21 12:39:00,29.6,16.0,30.08,WNW,296,4.0,11.0,58,0.00,,,0.00,weatherlink.com 1.10,2013-03-21 17:39:00,
2013-03-21 12:54:00,30.4,17.0,30.08,WNW,302,3.0,8.0,59,0.00,,,0.00,weatherlink.com 1.10,2013-03-21 17:54:00,
2013-03-21 13:09:00,31.3,18.0,30.08,WNW,284,0.0,9.0,57,0.00,,,0.00,weatherlink.com 1.10,2013-03-21 18:09:00,
2013-03-21 13:24:00,30.7,18.0,30.07,WSW,246,10.0,11.0,59,0.00,,,0.00,weatherlink.com 1.10,2013-03-21 18:24:00,
2013-03-21 13:39:00,31.0,18.0,30.07,SW,232,8.0,13.0,59,0.00,,,0.00,weatherlink.com 1.10,2013-03-21 18:39:00,
2013-03-21 13:54:00,32.2,19.0,30.07,SW,224,6.0,15.0,59,0.00,,,0.00,weatherlink.com 1.10,2013-03-21 18:54:00,
2013-03-21 14:09:00,32.1,19.0,30.07,West,267,6.0,9.0,58,0.00,,,0.00,weatherlink.com 1.10,2013-03-21 19:09:00,
2013-03-21 14:24:00,33.0,19.0,30.07,NW,307,0.0,10.0,56,0.00,,,0.00,weatherlink.com 1.10,2013-03-21 19:24:00,
2013-03-21 14:39:00,33.1,19.0,30.07,WSW,248,6.0,11.0,57,0.00,,,0.00,weatherlink.com 1.10,2013-03-21 19:39:00,
2013-03-21 14:54:00,33.4,20.0,30.07,NW,312,4.0,14.0,58,0.00,,,0.00,weatherlink.com 1.10,2013-03-21 19:54:00,
2013-03-21 15:09:00,33.9,19.0,30.06,WNW,299,5.0,10.0,54,0.00,,,0.00,weatherlink.com 1.10,2013-03-21 20:09:00,
2013-03-21 15:24:00,33.7,19.0,30.06,SW,232,5.0,11.0,56,0.00,,,0.00,weatherlink.com 1.10,2013-03-21 20:24:00,
2013-03-21 15:39:00,33.7,19.0,30.06,WSW,239,0.0,10.0,55,0.00,,,0.00,weatherlink.com 1.10,2013-03-21 20:39:00,
2013-03-21 15:54:00,34.3,18.0,30.06,SW,229,6.0,8.0,52,0.00,,,0.00,weatherlink.com 1.10,2013-03-21 20:54:00,
2013-03-21 16:09:00,34.1,19.0,30.05,SW,230,0.0,7.0,54,0.00,,,0.00,weatherlink.com 1.10,2013-03-21 21:09:00,
2013-03-21 16:24:00,34.6,19.0,30.05,WNW,291,2.0,6.0,54,0.00,,,0.00,weatherlink.com 1.10,2013-03-21 21:24:00,
2013-03-21 16:39:00,34.6,20.0,30.05,SW,236,6.0,10.0,55,0.00,,,0.00,weatherlink.com 1.10,2013-03-21 21:39:00,
2013-03-21 16:54:00,34.6,19.0,30.05,North,355,5.0,9.0,54,0.00,,,0.00,weatherlink.com 1.10,2013-03-21 21:54:00,
2013-03-21 17:10:00,34.6,19.0,30.04,NNW,327,0.0,7.0,53,0.00,,,0.00,weatherlink.com 1.10,2013-03-21 22:10:00,
2013-03-21 17:25:00,34.7,19.0,30.04,West,263,0.0,7.0,54,0.00,,,0.00,weatherlink.com 1.10,2013-03-21 22:25:00,
2013-03-21 17:40:00,34.3,18.0,30.04,NNE,17,2.0,5.0,52,0.00,,,0.00,weatherlink.com 1.10,2013-03-21 22:40:00,
2013-03-21 17:55:00,33.9,18.0,30.04,NW,310,1.0,5.0,52,0.00,,,0.00,weatherlink.com 1.10,2013-03-21 22:55:00,
2013-03-21 18:10:00,34.3,19.0,30.04,NW,311,2.0,5.0,53,0.00,,,0.00,weatherlink.com 1.10,2013-03-21 23:10:00,
2013-03-21 18:25:00,33.2,18.0,30.05,NW,315,1.0,6.0,54,0.00,,,0.00,weatherlink.com 1.10,2013-03-21 23:25:00,
2013-03-21 18:40:00,32.6,19.0,30.04,NW,308,0.0,2.0,58,0.00,,,0.00,weatherlink.com 1.10,2013-03-21 23:40:00,
2013-03-21 18:55:00,32.0,19.0,30.05,NNW,337,0.0,2.0,58,0.00,,,0.00,weatherlink.com 1.10,2013-03-21 23:55:00,
2013-03-21 19:10:00,31.3,18.0,30.05,NW,319,0.0,3.0,59,0.00,,,0.00,weatherlink.com 1.10,2013-03-22 00:10:00,
2013-03-21 19:25:00,30.7,19.0,30.05,NW,319,0.0,3.0,61,0.00,,,0.00,weatherlink.com 1.10,2013-03-22 00:25:00,
2013-03-21 19:40:00,30.3,19.0,30.05,NW,319,0.0,1.0,62,0.00,,,0.00,weatherlink.com 1.10,2013-03-22 00:40:00,
2013-03-21 19:55:00,29.9,20.0,30.05,NW,319,1.0,3.0,66,0.00,,,0.00,weatherlink.com 1.10,2013-03-22 00:55:00,
2013-03-21 20:10:00,29.4,20.0,30.06,NW,319,0.0,1.0,68,0.00,,,0.00,weatherlink.com 1.10,2013-03-22 01:10:00,
2013-03-21 20:25:00,29.0,20.0,30.06,NW,319,0.0,3.0,68,0.00,,,0.00,weatherlink.com 1.10,2013-03-22 01:25:00,
2013-03-21 20:40:00,28.7,20.0,30.07,NW,319,0.0,3.0,69,0.00,,,0.00,weatherlink.com 1.10,2013-03-22 01:40:00,
2013-03-21 20:55:00,28.3,19.0,30.07,NW,319,0.0,3.0,69,0.00,,,0.00,weatherlink.com 1.10,2013-03-22 01:55:00,
2013-03-21 21:10:00,28.1,19.0,30.07,NW,319,0.0,2.0,68,0.00,,,0.00,weatherlink.com 1.10,2013-03-22 02:10:00,
2013-03-21 21:25:00,27.8,19.0,30.07,NW,319,0.0,1.0,70,0.00,,,0.00,weatherlink.com 1.10,2013-03-22 02:25:00,
2013-03-21 21:40:00,27.4,19.0,30.08,NW,319,0.0,2.0,70,0.00,,,0.00,weatherlink.com 1.10,2013-03-22 02:40:00,
2013-03-21 21:55:00,27.3,19.0,30.08,NW,319,0.0,1.0,71,0.00,,,0.00,weatherlink.com 1.10,2013-03-22 02:55:00,
2013-03-21 22:10:00,27.0,19.0,30.08,NW,319,0.0,4.0,72,0.00,,,0.00,weatherlink.com 1.10,2013-03-22 03:10:00,
2013-03-21 22:25:00,26.6,19.0,30.08,NW,319,1.0,3.0,72,0.00,,,0.00,weatherlink.com 1.10,2013-03-22 03:25:00,
2013-03-21 22:40:00,26.5,19.0,30.09,NW,319,0.0,1.0,73,0.00,,,0.00,weatherlink.com 1.10,2013-03-22 03:40:00,
2013-03-21 22:55:00,26.3,19.0,30.08,NW,319,0.0,0.0,74,0.00,,,0.00,weatherlink.com 1.10,2013-03-22 03:55:00,
2013-03-21 23:10:00,26.0,19.0,30.09,NW,319,0.0,0.0,74,0.00,,,0.00,weatherlink.com 1.10,2013-03-22 04:10:00,
2013-03-21 23:25:00,25.7,19.0,30.09,NW,319,0.0,0.0,77,0.00,,,0.00,weatherlink.com 1.10,2013-03-22 04:25:00,
2013-03-21 23:40:00,25.1,19.0,30.09,NW,319,0.0,0.0,79,0.00,,,0.00,weatherlink.com 1.10,2013-03-22 04:40:00,
2013-03-21 23:55:00,24.5,19.0,30.09,NW,319,0.0,0.0,80,0.00,,,0.00,weatherlink.com 1.10,2013-03-22 04:55:00,